Location: Unspecified
(0.0000°N, 0.0000°E)
Time: 18:45:36
(UTC+00:00)

Transit 2A - Pass Details

Date: 28 May 2019
Orbit: 596 x 962 km, 66.7° (Epoch: 18 August)

Event Time Altitude Azimuth Distance (km) Brightness Sun altitude
Rises 16:41:18 0° 339° (NNW) 3,202 9.9 17.6°
Reaches altitude 10° 16:43:47 10° 338° (NNW) 2,220 9.2 17.1°
Maximum altitude 16:48:47 82° 251° (WSW) 687 6.2 15.9°
Drops below altitude 10° 16:53:21 10° 163° (SSE) 2,027 7.9 14.8°
Sets 16:55:33 0° 162° (SSE) 2,902 8.6 14.3°
